Temperature
20 19 20 19 19 19 19 19 19 19 19 19 19 19 19 19 19 19 19 19 19 19 19 19 18 18 18 18 18 18 18 18 18 18 18 18 18 18 18 18 18 18 18
20 19 20 19 19 19 19 19 19 19 19 19 19 19 19 19 19 19 18 18 18 18 18 18 18 18 18 18 18 18 18 18 18 18 18 18 18 18 18 18 18 18 18
19 19 19 19 19 19 19 19 19 19 19 19 19 19 19 18 19 18 18 18 18 18 18 18 18 18 18 18 18 18 18 18 18 18 18 18 18 18 18 18 18 18 18
19 19 19 19 19 19 19 19 19 19 19 19 19 18 18 18 19 18 18 18 18 18 18 18 18 18 18 18 18 18 18 18 18 18 18 18 18 18 18 18 18 18 18
19 19 18 19 19 19 19 19 19 19 19 19 19 18 18 18 19 19 19 18 18 18 18 18 18 18 18 18 18 18 18 18 18 18 18 18 18 18 18 18 18 18 18
19 19 18 19 19 19 19 19 19 19 19 19 19 19 18 18 18 18 18 19 18 18 18 18 18 18 18 18 18 18 18 18 18 18 18 18 18 18 18 18 18 18 18
20 19 19 19 19 19 19 19 19 19 19 18 18 18 18 18 18 18 18 19 18 18 18 18 18 18 18 18 18 18 18 18 18 18 18 18 18 18 18 18 18 18 18
20 19 19 19 19 19 19 19 19 19 18 18 18 18 18 18 18 18 18 18 18 18 18 18 18 18 18 18 18 18 18 18 18 18 18 18 18 18 18 18 18 18 18
19 19 19 19 19 19 19 19 19 19 18 18 18 18 18 18 18 18 18 18 18 18 18 18 18 18 18 18 18 18 18 18 18 18 18 18 18 18 18 18 18 18 18
19 19 19 19 19 19 18 19 19 19 19 18 18 19 19 18 18 18 18 19 19 19 18 18 18 18 18 18 18 18 18 18 18 18 18 18 18 18 18 18 18 18 18
19 19 19 19 19 19 19 18 18 19 19 18 18 19 18 18 18 18 18 19 19 19 19 18 19 19 18 18 18 18 18 18 18 18 18 18 18 18 18 18 18 18 18
19 19 19 19 19 19 19 18 18 18 18 18 18 18 18 18 18 18 18 19 19 19 19 18 19 18 18 18 18 18 18 18 18 18 18 18 18 18 18 18 18 18 18
20 19 19 19 19 19 19 19 18 18 18 18 18 18 18 18 18 18 18 18 18 18 18 18 18 18 18 18 19 19 19 19 19 19 18 18 18 18 18 18 18 18 18
20 19 19 19 19 19 19 19 19 18 18 18 18 18 18 18 18 18 18 18 18 18 18 18 18 18 18 18 19 19 19 19 19 18 18 18 18 18 18 18 18 18 18
20 20 19 19 19 19 19 19 19 18 18 18 18 18 18 18 18 18 18 18 18 18 18 18 18 18 18 18 19 18 18 18 18 18 18 18 18 18 18 18 18 18 18
20 20 19 19 19 19 19 19 18 18 18 18 18 18 18 18 18 18 18 18 18 18 18 18 18 18 18 18 18 18 18 18 18 18 18 18 18 18 18 18 18 18 18
20 20 19 19 19 19 19 19 19 18 18 18 18 18 18 18 18 18 18 18 18 18 18 18 18 18 18 18 18 18 18 18 18 18 18 18 18 18 18 18 18 18 18
21 20 20 20 19 19 19 19 19 19 18 18 18 18 18 18 18 18 18 18 18 18 18 18 18 18 18 18 18 18 18 18 18 18 18 18 18 18 18 18 18 18 18
21 20 20 20 19 19 19 19 18 18 18 18 18 18 18 18 18 18 18 18 18 18 18 18 18 18 18 18 18 18 18 18 18 18 18 18 18 18 18 18 18 18 18
20 20 20 20 20 19 19 19 19 18 18 18 18 18 18 18 18 18 18 18 18 18 18 18 18 18 18 18 18 18 18 18 18 18 18 18 18 17 17 17 17 17 17
20 20 20 20 20 19 19 19 19 18 18 18 18 18 18 18 18 18 18 18 18 18 18 18 18 18 18 18 18 18 18 18 18 18 18 18 18 17 17 17 17 17 17
20 20 20 20 20 20 19 19 19 18 18 18 18 18 18 18 18 18 18 18 18 18 18 17 17 17 18 18 18 19 19 19 18 18 18 18 17 17 17 17 17 17 16
20 20 20 20 20 20 19 19 19 19 19 18 18 18 18 18 18 18 18 18 18 18 18 18 17 17 17 18 18 18 19 20 19 18 18 17 17 17 17 17 17 16 16
21 20 20 20 20 20 19 19 19 19 19 19 18 18 18 18 18 18 18 18 18 18 18 17 17 17 17 18 18 17 17 17 18 18 18 18 17 17 17 17 16 16 16
21 20 20 20 20 20 19 19 19 18 18 18 18 18 18 18 18 18 18 18 18 18 17 17 17 17 17 17 18 17 17 17 17 17 18 18 18 17 17 17 16 16 16
21 20 20 20 20 20 19 19 19 19 18 18 18 18 18 18 18 18 18 18 18 17 17 17 17 17 17 17 17 17 17 17 17 17 18 17 18 18 17 17 16 16 16
Wind_Speed
4 7 10 8 9 10 11 11 11 11 10 11 11 11 11 11 11 10 10 10 9 9 9 9 10 9 9 9 9 9 9 9 9 8 8 8 8 8 8 7 7 7 9
6 8 10 7 8 10 11 11 11 10 10 10 11 11 11 10 10 10 10 9 8 8 9 9 9 9 9 9 9 8 9 9 9 8 9 9 8 8 7 6 3 5 8
7 9 10 8 9 11 11 10 10 10 10 10 10 11 10 9 9 9 9 9 8 8 8 8 8 9 9 8 8 7 8 8 8 8 9 8 9 9 7 6 5 6 6
8 8 9 10 11 12 11 10 10 10 10 10 10 10 10 9 9 9 9 9 8 8 7 7 7 7 7 7 7 7 7 7 8 10 9 7 7 10 9 7 6 6 6
8 9 11 10 10 10 10 9 9 9 9 10 10 10 9 9 8 8 8 8 7 7 7 6 6 6 7 6 6 7 7 7 8 10 6 6 6 10 9 8 7 7 6
9 9 12 9 9 9 10 9 9 8 9 9 9 9 8 8 7 7 7 7 6 6 6 6 6 5 6 6 6 7 7 8 10 7 6 6 6 9 9 8 7 7 7
8 9 11 10 10 9 9 8 8 8 8 8 8 8 7 7 6 6 6 6 5 5 5 5 5 5 5 5 6 6 7 9 9 5 5 6 5 8 8 8 7 7 7
8 8 11 11 9 9 8 8 8 8 8 8 7 6 6 6 5 5 5 4 4 4 4 4 4 4 4 4 5 5 7 9 8 6 6 6 7 8 8 8 8 8 8
8 7 8 10 10 9 8 7 8 7 7 7 7 6 5 5 4 4 3 3 3 3 3 3 4 5 5 5 5 6 7 9 8 5 6 4 8 9 9 8 8 8 8
7 7 7 7 7 7 9 8 7 7 6 6 6 5 5 5 5 5 5 4 2 2 2 2 3 3 4 5 6 6 7 9 8 6 4 4 8 9 9 9 9 8 8
6 6 6 6 6 5 6 8 8 8 7 6 6 6 5 4 4 5 4 3 3 3 3 3 3 4 5 6 7 7 8 6 5 4 3 5 7 8 9 9 9 9 9
7 6 5 5 5 5 4 6 5 6 6 4 4 4 4 3 2 2 5 4 3 3 4 5 5 7 8 5 7 8 5 5 4 3 2 6 6 8 9 9 9 10 10
7 6 6 5 4 4 4 4 3 3 4 4 4 3 2 2 3 2 2 4 4 5 4 4 5 4 4 3 3 3 3 3 2 2 3 6 7 7 8 9 9 9 10
7 6 6 6 5 4 3 3 3 3 3 3 4 3 2 1 1 1 1 1 2 2 2 2 2 2 3 3 3 3 3 3 2 2 2 6 7 8 8 9 9 9 9
7 6 6 5 5 4 4 2 3 3 3 3 2 3 2 1 1 1 1 1 2 2 2 2 1 1 2 3 3 3 3 3 3 3 2 6 7 8 8 9 10 10 10
7 7 6 6 5 4 4 3 3 3 3 2 2 2 2 2 1 1 2 1 1 2 1 2 2 2 2 2 3 2 2 3 2 3 3 4 7 8 9 9 10 10 10
7 7 7 6 6 5 4 4 3 2 3 2 2 2 2 2 1 2 1 1 1 1 2 2 2 2 3 2 3 2 2 2 2 2 3 3 4 8 9 9 9 9 9
7 7 7 6 6 6 4 3 2 2 2 2 2 2 2 2 1 2 1 1 1 1 2 2 2 2 2 2 2 3 2 2 3 3 3 2 2 2 6 9 9 9 9
7 7 7 6 6 6 5 4 3 2 1 1 1 1 2 2 2 2 1 1 1 1 1 2 1 2 2 3 3 3 3 2 2 3 2 2 2 2 2 6 9 9 9
7 7 7 6 6 5 4 4 3 2 2 2 2 1 2 2 2 2 1 1 2 1 1 1 2 2 3 3 3 2 2 2 2 2 3 2 2 2 2 2 4 6 7
7 7 7 7 6 5 4 4 3 3 2 2 2 2 2 2 2 2 2 1 2 1 1 2 2 2 3 2 3 3 3 3 3 2 2 2 2 2 2 2 3 2 3
8 8 8 7 7 6 5 4 3 2 2 2 2 1 2 2 2 2 2 2 1 1 1 2 2 3 2 2 3 4 3 3 2 2 2 3 2 2 2 3 3 3 3
9 9 8 8 8 7 6 4 3 3 2 2 2 2 2 2 2 2 2 2 2 2 2 2 2 3 3 3 2 3 3 3 2 2 2 2 2 3 3 3 4 3 3
9 9 8 7 7 7 7 6 6 4 3 2 2 2 2 2 2 2 2 2 2 2 2 3 2 3 4 3 2 3 3 3 4 3 3 3 3 4 3 4 4 3 4
8 8 7 7 6 6 6 6 5 4 3 2 2 2 2 2 2 2 2 2 3 3 2 3 2 3 3 4 3 3 3 3 5 5 5 4 4 3 3 4 4 4 4
8 8 8 8 7 6 6 6 5 4 3 2 2 2 3 2 2 2 2 3 3 2 3 3 3 4 4 4 4 4 4 4 4 5 5 5 5 4 3 3 4 4 4
Wind_Direction
116 119 128 139 140 139 134 132 131 131 132 132 134 136 139 141 144 148 148 146 147 148 147 144 142 144 143 141 141 141 141 142 145 148 147 146 144 146 147 155 171 158 133
118 120 128 134 140 142 135 134 133 132 129 131 134 137 141 144 143 145 146 146 148 152 153 152 149 148 147 147 149 152 153 153 155 158 160 163 160 158 159 164 189 118 136
117 121 129 121 128 137 135 133 134 135 133 132 133 137 140 142 142 143 144 146 147 148 152 155 155 153 154 154 155 160 164 164 169 176 186 182 160 161 163 163 155 145 150
119 122 116 116 123 131 133 133 132 133 132 131 133 136 140 140 139 141 145 148 148 149 153 159 163 158 157 160 164 167 172 179 184 198 200 180 166 155 166 171 169 164 167
117 118 113 120 125 130 130 129 129 131 131 131 133 133 137 139 140 144 146 147 149 152 157 161 162 163 167 172 177 178 184 193 201 216 200 190 175 154 169 177 176 177 183
123 122 118 126 126 127 128 129 133 137 134 132 131 131 133 136 140 146 145 147 151 158 165 168 168 168 176 183 184 187 195 207 219 216 205 201 182 160 177 187 188 188 190
125 122 123 127 128 129 129 133 134 136 133 129 128 130 131 133 135 140 143 148 156 162 165 169 172 183 186 188 190 196 203 220 234 225 217 206 181 164 181 194 195 193 193
126 124 123 132 132 134 132 131 131 130 132 131 131 134 131 127 131 134 140 149 157 165 174 182 188 193 189 194 200 206 211 234 228 222 222 209 165 171 188 195 196 197 200
126 128 132 140 145 149 142 135 132 132 133 136 136 142 143 143 143 139 152 158 160 173 178 187 198 206 207 210 213 217 221 239 249 232 228 210 160 185 198 201 203 205 208
128 134 137 135 141 151 148 144 141 138 135 141 147 151 166 177 171 169 178 159 167 185 198 188 194 209 215 221 222 224 229 239 239 235 231 174 163 193 206 209 207 209 208
133 136 140 140 146 150 144 142 153 152 154 165 163 165 191 189 175 176 136 145 182 197 197 194 204 213 221 217 217 225 232 240 239 245 234 141 170 195 208 212 210 207 209
147 148 145 143 149 149 147 147 159 156 153 166 154 172 180 174 190 190 148 176 195 203 204 203 212 217 229 221 204 213 232 233 242 229 182 150 189 204 212 214 214 213 211
152 152 150 147 151 154 149 145 144 153 158 166 162 179 181 197 185 188 185 183 198 209 218 199 221 227 231 237 245 229 242 255 252 238 165 164 195 208 213 214 216 216 213
157 157 154 152 153 157 152 147 158 160 165 166 160 195 188 195 217 171 232 250 232 220 234 248 234 240 253 254 252 247 240 242 255 252 178 175 200 210 215 218 218 217 216
164 164 159 160 157 160 157 176 162 166 169 164 176 187 217 213 227 225 249 267 271 261 234 253 256 243 258 254 257 251 244 243 250 249 205 176 202 214 219 221 219 220 218
174 170 167 170 165 171 175 179 179 179 175 188 188 185 214 227 235 238 233 250 260 264 274 263 243 246 256 262 258 246 253 252 243 250 248 190 194 209 217 220 219 221 221
179 173 176 177 176 183 189 194 187 185 175 183 181 181 213 222 212 240 243 239 269 277 256 249 250 245 245 246 249 244 238 239 248 244 246 246 214 200 206 214 218 221 223
183 178 184 186 179 183 184 197 197 194 182 194 184 179 194 229 232 250 254 262 272 253 248 243 247 250 253 258 257 256 256 219 234 236 235 231 253 251 200 200 214 221 224
182 180 181 185 183 182 178 182 195 192 206 217 204 204 198 218 223 243 264 306 265 262 273 270 253 270 255 257 255 247 258 235 239 244 250 251 240 255 258 181 197 212 219
178 178 176 180 181 179 177 179 191 195 205 208 211 207 233 229 223 247 234 243 270 277 279 294 289 271 268 264 269 274 266 255 251 251 247 239 223 230 245 249 212 203 204
180 181 179 181 176 180 185 196 194 202 212 207 214 206 221 238 220 230 260 218 258 257 272 274 275 263 263 267 264 262 235 228 243 233 240 249 231 224 234 247 252 262 208
185 183 182 184 181 189 191 196 198 212 218 206 227 199 231 231 232 212 234 248 243 247 247 265 269 281 281 271 278 283 268 229 230 231 234 233 242 237 239 236 234 240 254
188 188 188 186 184 193 190 187 186 194 214 204 210 211 223 220 217 242 236 257 256 252 247 254 260 264 276 274 276 279 284 288 292 232 234 242 245 247 247 251 238 230 237
187 186 188 185 184 184 187 193 197 203 210 213 217 195 197 205 220 221 236 247 255 262 260 261 269 271 269 274 266 262 282 300 287 275 243 236 241 238 245 254 252 233 230
184 184 182 179 182 186 194 195 200 213 219 217 218 194 222 206 221 236 239 246 245 254 264 278 283 275 269 278 280 268 261 255 259 269 273 275 265 252 243 244 244 243 236
183 181 178 174 179 187 189 191 194 205 219 226 237 234 235 224 224 236 253 253 249 256 252 256 266 260 271 278 280 276 268 270 272 272 274 274 274 269 257 253 249 244 240
Height
1508 1507 1505 1505 1506 1507 1510 1511 1513 1515 1516 1517 1518 1519 1520 1522 1523 1524 1525 1526 1527 1528 1529 1530 1531 1532 1533 1534 1535 1536 1537 1539 1540 1541 1542 1543 1543 1544 1545 1545 1546 1548 1548
1508 1507 1505 1504 1502 1505 1509 1512 1514 1516 1517 1518 1519 1520 1522 1523 1524 1525 1526 1527 1528 1529 1530 1531 1532 1533 1534 1535 1536 1537 1538 1539 1540 1541 1542 1543 1544 1545 1545 1546 1546 1548 1547
1508 1508 1506 1502 1498 1502 1509 1513 1515 1517 1518 1519 1520 1522 1523 1524 1525 1526 1527 1527 1528 1529 1530 1531 1532 1533 1535 1536 1537 1538 1539 1540 1541 1542 1543 1544 1544 1544 1545 1546 1546 1547 1547
1510 1510 1509 1506 1504 1507 1511 1514 1516 1518 1519 1521 1522 1523 1524 1525 1526 1527 1527 1528 1529 1530 1531 1532 1533 1534 1535 1536 1537 1538 1539 1540 1541 1542 1543 1545 1545 1544 1545 1546 1546 1546 1547
1511 1512 1511 1510 1510 1512 1514 1516 1517 1519 1521 1522 1523 1524 1525 1526 1527 1528 1528 1529 1530 1531 1532 1532 1533 1534 1535 1536 1537 1538 1539 1540 1541 1542 1544 1544 1545 1544 1545 1545 1545 1546 1546
1513 1514 1512 1513 1513 1514 1516 1517 1519 1520 1522 1523 1524 1525 1526 1527 1528 1528 1529 1530 1530 1531 1532 1533 1534 1535 1536 1536 1537 1538 1539 1540 1540 1542 1543 1544 1544 1543 1543 1544 1545 1545 1546
1515 1515 1514 1514 1515 1516 1518 1519 1520 1522 1523 1524 1525 1526 1527 1528 1529 1529 1530 1530 1531 1531 1532 1533 1533 1534 1535 1536 1537 1538 1538 1539 1540 1542 1542 1542 1542 1542 1543 1543 1544 1545 1545
1516 1516 1516 1515 1517 1518 1519 1521 1522 1523 1524 1525 1526 1527 1528 1528 1529 1530 1530 1531 1531 1532 1532 1532 1533 1534 1535 1536 1537 1537 1538 1538 1540 1541 1541 1542 1541 1541 1542 1542 1543 1544 1544
1516 1517 1518 1518 1518 1519 1521 1522 1523 1524 1525 1526 1527 1527 1528 1529 1530 1530 1531 1531 1531 1532 1532 1532 1533 1534 1534 1535 1536 1536 1537 1537 1539 1540 1541 1541 1540 1540 1541 1541 1542 1542 1543
1517 1518 1519 1520 1521 1522 1522 1522 1523 1524 1525 1526 1527 1528 1529 1530 1530 1531 1531 1531 1531 1532 1532 1532 1533 1533 1534 1534 1535 1535 1536 1536 1538 1539 1539 1539 1538 1539 1539 1540 1540 1541 1541
1518 1519 1520 1521 1522 1523 1524 1523 1524 1525 1526 1527 1528 1528 1529 1531 1531 1531 1531 1531 1531 1531 1532 1532 1532 1533 1533 1533 1534 1534 1535 1536 1537 1537 1537 1537 1536 1537 1537 1538 1538 1539 1540
1519 1520 1521 1522 1522 1523 1524 1524 1525 1526 1527 1528 1528 1529 1530 1530 1531 1532 1531 1531 1531 1531 1531 1531 1531 1532 1532 1533 1533 1533 1534 1535 1536 1536 1536 1535 1535 1535 1535 1536 1536 1537 1538
1519 1520 1521 1521 1522 1524 1524 1525 1525 1526 1527 1528 1528 1529 1530 1531 1531 1532 1532 1532 1531 1531 1532 1531 1531 1532 1532 1532 1532 1533 1533 1534 1534 1534 1534 1533 1533 1533 1533 1534 1535 1535 1536
1520 1521 1521 1522 1522 1523 1524 1525 1526 1527 1528 1529 1529 1529 1530 1531 1531 1532 1531 1532 1532 1532 1531 1531 1531 1531 1531 1531 1531 1531 1531 1531 1532 1532 1531 1531 1531 1531 1531 1532 1533 1533 1534
1519 1520 1521 1522 1522 1523 1524 1525 1527 1527 1528 1529 1529 1529 1530 1531 1531 1531 1531 1531 1531 1531 1531 1530 1530 1530 1530 1530 1530 1529 1529 1529 1530 1530 1530 1529 1529 1529 1529 1530 1530 1531 1532
1520 1521 1521 1522 1522 1523 1524 1525 1526 1527 1527 1529 1529 1529 1529 1530 1530 1531 1531 1530 1530 1530 1530 1529 1529 1529 1529 1529 1529 1528 1528 1528 1528 1528 1528 1528 1527 1527 1527 1527 1528 1529 1529
1519 1520 1521 1522 1522 1523 1524 1525 1526 1527 1528 1528 1529 1529 1529 1530 1530 1530 1530 1530 1530 1529 1529 1529 1528 1528 1528 1528 1528 1528 1527 1527 1527 1527 1526 1526 1526 1525 1524 1525 1525 1526 1527
1518 1519 1520 1522 1522 1523 1523 1524 1526 1527 1527 1528 1528 1528 1528 1528 1529 1529 1529 1529 1529 1529 1528 1528 1527 1527 1527 1527 1527 1526 1526 1526 1525 1525 1525 1525 1524 1523 1523 1522 1523 1524 1524
1517 1518 1519 1520 1521 1522 1523 1523 1525 1525 1526 1527 1527 1528 1527 1528 1528 1528 1528 1528 1528 1528 1527 1527 1527 1526 1526 1526 1526 1525 1525 1525 1524 1524 1523 1523 1522 1521 1521 1520 1520 1521 1521
1516 1517 1518 1519 1520 1521 1522 1523 1523 1525 1525 1526 1526 1526 1526 1527 1527 1527 1527 1527 1527 1527 1526 1526 1525 1525 1525 1525 1525 1524 1524 1523 1523 1522 1522 1521 1521 1520 1519 1519 1518 1518 1518
1514 1515 1516 1517 1519 1520 1521 1522 1523 1524 1524 1525 1525 1525 1525 1526 1526 1526 1526 1525 1525 1525 1524 1524 1524 1524 1524 1523 1523 1523 1522 1521 1521 1520 1520 1520 1519 1518 1517 1516 1516 1517 1517
1512 1513 1514 1515 1517 1518 1519 1520 1522 1522 1523 1524 1524 1524 1524 1524 1524 1525 1524 1524 1524 1523 1523 1522 1522 1522 1523 1522 1522 1521 1521 1521 1519 1519 1518 1517 1517 1516 1515 1515 1514 1514 1514
1510 1511 1513 1514 1515 1516 1518 1519 1520 1521 1522 1523 1523 1523 1523 1523 1523 1523 1523 1523 1522 1522 1522 1521 1520 1520 1521 1521 1520 1520 1519 1517 1518 1517 1516 1516 1515 1514 1513 1513 1513 1512 1511
1508 1509 1511 1512 1513 1514 1516 1517 1518 1519 1520 1521 1522 1522 1521 1521 1522 1521 1521 1521 1520 1521 1520 1519 1519 1519 1518 1519 1518 1517 1518 1517 1516 1515 1515 1514 1513 1512 1511 1511 1511 1510 1509
1506 1507 1509 1510 1511 1513 1514 1515 1517 1518 1519 1520 1520 1520 1520 1520 1520 1520 1519 1519 1518 1518 1518 1517 1516 1516 1516 1516 1516 1515 1515 1514 1514 1514 1512 1512 1511 1510 1509 1508 1508 1507 1507
1504 1505 1507 1508 1509 1511 1512 1513 1514 1515 1517 1518 1518 1519 1519 1519 1519 1518 1518 1517 1516 1516 1515 1514 1514 1514 1513 1513 1513 1513 1513 1512 1512 1511 1510 1509 1508 1508 1507 1506 1506 1505 1504